Location: G�ppingen
(48.7000°N, 9.6670°E)
Time: 07:07:10
(UTC+02:00)

ISS - Visible Passes

Search period start: 16 July 2018 00:00
Search period end: 26 July 2018 00:00
Orbit: 402 x 408 km, 51.6° (Epoch: 16 July)

Date Brightness Start Highest point End Pass type
(mag) Time Alt. Az. Time Alt. Az. Time Alt. Az.
16 Jul -2.0 00:59:18 22° E 00:59:18 22° E 01:00:39 10° ENE visible
16 Jul -3.2 02:31:56 20° W 02:33:57 56° N 02:37:13 10° ENE visible
16 Jul -3.0 04:07:29 10° WNW 04:10:44 54° N 04:13:59 10° E visible
17 Jul -3.6 01:41:12 52° WNW 01:41:49 70° NNW 01:45:07 10° ENE visible
17 Jul -2.8 03:15:22 10° WNW 03:18:35 49° N 03:21:48 10° E visible
17 Jul -3.9 04:51:56 10° WNW 04:55:15 80° SSW 04:58:32 10° ESE visible
18 Jul -3.6 00:50:13 62° ENE 00:50:13 62° ENE 00:53:02 10° ENE visible
18 Jul -2.8 02:23:11 10° W 02:26:25 48° N 02:29:37 10° ENE visible
18 Jul -3.6 03:59:51 10° WNW 04:03:09 74° NNE 04:06:27 10° ESE visible
18 Jul-0.422:25:46E22:25:46E22:17:26Svisible
18 Jul -3.6 23:58:12 48° ESE 23:58:12 48° ESE 00:00:55 10° ENE visible
19 Jul -3.0 01:30:59 10° W 01:34:13 53° N 01:37:28 10° ENE visible
19 Jul -3.2 03:07:45 10° WNW 03:11:00 58° N 03:14:16 10° E visible
19 Jul -3.5 04:44:18 10° WNW 04:47:28 44° SSW 04:50:38 10° SE visible
19 Jul -3.3 23:02:37 10° SW 23:05:39 36° SSE 23:08:42 10° E visible
20 Jul -3.4 00:38:47 10° W 00:42:03 64° NNW 00:45:19 10° ENE visible
20 Jul -2.9 02:15:35 10° WNW 02:18:48 50° N 02:22:02 10° E visible
20 Jul -3.9 03:52:08 10° WNW 03:55:26 69° SSW 03:58:42 10° ESE visible
20 Jul -2.6 22:11:04 10° SSW 22:13:41 22° SE 22:16:20 10° E visible
20 Jul -3.9 23:46:36 10° WSW 23:49:53 84° NNW 23:53:12 10° ENE visible
21 Jul -2.8 01:23:23 10° WNW 01:26:36 48° N 01:29:48 10° ENE visible
21 Jul -3.8 03:00:01 10° WNW 03:03:19 82° NNE 03:06:37 10° ESE visible
21 Jul -2.7 04:36:51 10° W 04:39:32 23° SW 04:42:14 10° SSE visible
21 Jul -3.9 22:54:31 10° WSW 22:57:46 67° SSE 23:01:02 10° ENE visible
22 Jul -2.9 00:31:09 10° W 00:34:22 50° N 00:37:36 10° ENE visible
22 Jul -3.4 02:07:53 10° WNW 02:11:09 63° NNE 02:14:25 10° E visible
22 Jul -3.3 03:44:29 10° WNW 03:47:33 37° SSW 03:50:37 10° SE visible
22 Jul -3.5 22:02:35 10° SW 22:05:42 42° SSE 22:08:50 10° ENE visible
22 Jul -3.2 23:38:54 10° W 23:42:09 59° NNW 23:45:25 10° ENE visible
23 Jul -3.0 01:15:42 10° WNW 01:18:56 52° N 01:20:48 22° ENE visible
23 Jul -1.8 02:52:14 10° WNW 02:53:17 19° WNW 02:53:17 19° WNW visible
23 Jul -3.7 22:46:40 10° WSW 22:49:57 75° NNW 22:53:15 10° ENE visible
24 Jul -2.9 00:23:28 10° WNW 00:26:41 48° N 00:29:05 16° ENE visible
24 Jul -2.2 02:00:04 10° WNW 02:01:40 26° WNW 02:01:40 26° WNW visible
24 Jul -3.9 21:54:30 10° WSW 21:57:46 78° SSE 22:01:03 10° ENE visible
24 Jul -2.9 23:31:12 10° W 23:34:25 49° N 23:37:38 10° ENE visible
25 Jul -3.3 01:07:53 10° WNW 01:10:40 56° NW 01:10:40 56° NW visible
25 Jul -3.1 22:38:55 10° W 22:42:09 55° N 22:45:24 10° ENE visible
